Other Surface Observations
Issued by NWS Charleston, SC

Home | Current Version | Previous Version | Text Only | Print | Product List | Glossary On
Versions: 1 2 3 4 5 6 7 8 9 10 11 12 13 14 15 16 17 18 19 20 21 22 23 24 25 26 27 28 29 30 31 32 33 34 35 36 37 38 39 40 41 42 43 44 45 46 47 48 49 50
000
SXUS52 KCHS 201825
OSOCHS

MARINE OBSERVATIONS
NATIONAL WEATHER SERVICE CHARLESTON SC
200 PM EDT SAT SEP 20 2014

...DOWNTOWN CHARLESTON AND HARBOR...

CITY           SKY/WX    TMP DP  RH WIND       PRES   REMARKS
WATERFRONT PRK   N/A     73 N/A N/A N21         N/A
FORT JOHNSON   NOT AVBL

...LAKE MOULTRIE...

CITY           SKY/WX    TMP DP  RH WIND       PRES   REMARKS
PINOPOLIS        N/A     75  66  73 NE16      29.97F

...LAKE AND SUPPLEMENTAL COASTAL OBSERVATIONS...

STATION/POSITION TIME  TEMP    WIND        PRES    WAVE   SWELL
                       AIR SEA DIR/SP/G            HT/PER HT/PER/DIR
                 (UTC) (F)     (DEG/KT/KT) (MB)    (FT/S) (FT/S/D)
FORT PULASKI     1800   72     360/ 13/ 17 1015.9F
SAPELO ISLAND    1800   73      10/ 15     1015.0F
UPR LAKE MARION  NOT AVBL
WINYAH BAY       1800   74      10/  6     1017.0S
LAKE MURRAY      1700   78      40/  4/  9 1019.0F
ACE BASIN NERRS  1800   73      10/  5     1016.0F


...C-MAN AND BUOY OBSERVATIONS...

STATION/POSITION TIME  TEMP    WIND        PRES    WAVE   SWELL
                       AIR SEA DIR/SP/G            HT/PER HT/PER/DIR
                 (UTC) (F)     (DEG/KT/KT) (MB)    (FT/S) (FT/S/D)
BUOY 41004       1800   77 82   70/ 17/ 21 1014.1F   7/ 7   3/ 9
BUOY 41008       1800   76 83   20/ 21/ 27 1014.0F   6/ 8   3/ 80/10
FOLLY BEACH CMAN 1800   73     360/ 16/ 19 1016.5F
CAPERS NS BUOY   1700   74      30/ 19/ 25   N/A
FRIPP NS BUOY    NOT AVBL
5E ST. MARYS GA  1800      84                N/A     6/ 6
FRYING PAN BUOY  NOT AVBL
BUOY 41025       1800   80     120/ 12/ 16 1017.3F   7/10   7/ 80/10
CAPE LOOKOUT NC  1800   74      40/ 20/ 23 1017.3F
BUOY 41002       1727   78 82  130/ 23/ 29 1012.8F   8/ 7   2/ 80/10
BUOY 41010       1800   82 84  220/ 17/ 21 1011.2F   6/ 7   5/ 60/ 7
BUOY 41012       NOT AVBL
ST AUGUSTINE FL  1800   76      10/ 15/ 17 1013.1F


$$



USA.gov is the U.S. government's official web portal to all federal, state and local government web resources and services.